Time,TemperatureF,DewpointF,PressureIn,WindDirection,WindDirectionDegrees,WindSpeedMPH,WindSpeedGustMPH,Humidity,HourlyPrecipIn,Conditions,Clouds,dailyrainin,SoftwareType,DateUTC
2014-01-06 00:00:00,64.1,63.5,29.96,SSW,210,0.0,0.0,98,0.00,,---,0.00,VWS V14.01,2014-01-06 05:00:00,
2014-01-06 00:01:00,64.2,63.6,29.96,SSW,210,0.0,0.0,98,0.00,,---,0.00,VWS V14.01,2014-01-06 05:01:00,
2014-01-06 00:06:00,64.4,63.8,29.96,SSW,210,0.0,0.0,98,0.00,,---,0.00,VWS V14.01,2014-01-06 05:06:00,
2014-01-06 00:11:00,64.7,64.1,29.96,SSW,210,0.0,0.0,98,0.00,,---,0.00,VWS V14.01,2014-01-06 05:11:00,
2014-01-06 00:16:00,64.8,64.2,29.95,SSW,210,0.0,0.0,98,0.00,,---,0.00,VWS V14.01,2014-01-06 05:16:00,
2014-01-06 00:21:00,64.9,64.3,29.95,SSW,210,0.0,0.0,98,0.00,,---,0.00,VWS V14.01,2014-01-06 05:21:00,
2014-01-06 00:26:00,64.5,63.6,29.95,SSW,210,0.0,0.0,97,0.00,,---,0.00,VWS V14.01,2014-01-06 05:26:00,
2014-01-06 00:31:00,64.1,63.2,29.95,SSW,210,0.0,0.0,97,0.00,,---,0.00,VWS V14.01,2014-01-06 05:31:00,
2014-01-06 00:36:00,63.9,63.0,29.95,SSW,210,0.0,0.0,97,0.00,,---,0.00,VWS V14.01,2014-01-06 05:36:00,
2014-01-06 00:41:00,63.7,62.8,29.95,SSW,210,0.0,0.0,97,0.00,,---,0.00,VWS V14.01,2014-01-06 05:41:00,
2014-01-06 00:46:00,63.5,62.6,29.95,SSW,210,0.0,0.0,97,0.00,,---,0.00,VWS V14.01,2014-01-06 05:46:00,
2014-01-06 00:51:00,63.7,63.1,29.95,SSW,210,0.0,0.0,98,0.00,,---,0.00,VWS V14.01,2014-01-06 05:51:00,
2014-01-06 00:56:00,64.1,63.5,29.95,SSW,210,0.0,0.0,98,0.00,,---,0.00,VWS V14.01,2014-01-06 05:56:00,
2014-01-06 01:01:00,64.3,63.7,29.95,SSW,210,0.0,0.0,98,0.00,,---,0.00,VWS V14.01,2014-01-06 06:01:00,
2014-01-06 01:06:00,64.6,64.0,29.95,SSW,210,0.0,0.0,98,0.00,,---,0.00,VWS V14.01,2014-01-06 06:06:00,
2014-01-06 01:11:00,65.0,64.4,29.95,SSW,210,0.0,0.0,98,0.00,,---,0.00,VWS V14.01,2014-01-06 06:11:00,
2014-01-06 01:16:00,65.2,64.6,29.95,SSW,210,0.0,0.0,98,0.00,,---,0.00,VWS V14.01,2014-01-06 06:16:00,
2014-01-06 01:21:00,65.4,64.8,29.95,South,190,0.0,0.0,98,0.00,,---,0.00,VWS V14.01,2014-01-06 06:21:00,
2014-01-06 01:26:00,65.6,65.0,29.95,South,190,0.0,0.0,98,0.00,,---,0.00,VWS V14.01,2014-01-06 06:26:00,
2014-01-06 01:31:00,65.7,65.1,29.95,South,190,0.0,0.0,98,0.00,,---,0.00,VWS V14.01,2014-01-06 06:31:00,
2014-01-06 01:36:00,65.7,65.1,29.95,South,191,0.0,0.0,98,0.00,,---,0.00,VWS V14.01,2014-01-06 06:36:00,
2014-01-06 01:41:00,65.7,65.1,29.95,South,191,0.0,0.0,98,0.00,,---,0.00,VWS V14.01,2014-01-06 06:41:00,
2014-01-06 01:46:00,65.7,65.1,29.95,SW,222,0.0,1.0,98,0.00,,---,0.00,VWS V14.01,2014-01-06 06:46:00,
2014-01-06 01:51:00,65.8,65.2,29.95,SW,220,0.0,0.0,98,0.00,,---,0.00,VWS V14.01,2014-01-06 06:51:00,
2014-01-06 01:56:00,65.9,65.3,29.95,SSW,209,0.0,0.0,98,0.00,,---,0.00,VWS V14.01,2014-01-06 06:56:00,
2014-01-06 02:01:00,66.0,65.4,29.95,SSW,209,0.0,0.0,98,0.00,,---,0.00,VWS V14.01,2014-01-06 07:01:00,
2014-01-06 02:06:00,65.9,65.3,29.95,SSW,209,1.0,1.0,98,0.00,,---,0.00,VWS V14.01,2014-01-06 07:06:00,
2014-01-06 02:11:00,66.0,65.4,29.95,SW,219,0.0,0.0,98,0.00,,---,0.00,VWS V14.01,2014-01-06 07:11:00,
2014-01-06 02:16:00,66.1,65.5,29.95,SW,219,0.0,0.0,98,0.00,,---,0.00,VWS V14.01,2014-01-06 07:16:00,
2014-01-06 02:21:00,66.1,65.5,29.95,SSW,209,0.0,0.0,98,0.00,,---,0.00,VWS V14.01,2014-01-06 07:21:00,
2014-01-06 02:26:00,66.1,65.5,29.95,SW,226,0.0,0.0,98,0.00,,---,0.00,VWS V14.01,2014-01-06 07:26:00,
2014-01-06 02:31:00,66.0,65.4,29.95,WSW,243,1.0,1.0,98,0.00,,---,0.00,VWS V14.01,2014-01-06 07:31:00,
2014-01-06 02:36:00,66.0,65.4,29.95,SSW,197,0.0,0.0,98,0.00,,---,0.00,VWS V14.01,2014-01-06 07:36:00,
2014-01-06 02:41:00,66.0,65.4,29.95,SSW,196,0.0,0.0,98,0.00,,---,0.00,VWS V14.01,2014-01-06 07:41:00,
2014-01-06 02:46:00,65.9,65.3,29.95,SSW,196,0.0,0.0,98,0.00,,---,0.00,VWS V14.01,2014-01-06 07:46:00,
2014-01-06 02:51:00,65.8,65.2,29.95,SSW,197,0.0,0.0,98,0.00,,---,0.00,VWS V14.01,2014-01-06 07:51:00,
2014-01-06 02:56:00,65.7,65.1,29.95,SSW,197,0.0,0.0,98,0.00,,---,0.00,VWS V14.01,2014-01-06 07:56:00,
2014-01-06 03:01:00,65.6,65.0,29.95,SSW,197,0.0,0.0,98,0.00,,---,0.00,VWS V14.01,2014-01-06 08:01:00,
2014-01-06 03:06:00,65.6,65.0,29.95,SSW,197,0.0,0.0,98,0.00,,---,0.00,VWS V14.01,2014-01-06 08:06:00,
2014-01-06 03:11:00,65.5,64.9,29.95,SSW,197,0.0,0.0,98,0.00,,---,0.00,VWS V14.01,2014-01-06 08:11:00,
2014-01-06 03:16:00,65.4,64.8,29.95,SSW,197,0.0,0.0,98,0.00,,---,0.00,VWS V14.01,2014-01-06 08:16:00,
2014-01-06 03:21:00,65.4,64.8,29.95,SSW,197,0.0,0.0,98,0.00,,---,0.00,VWS V14.01,2014-01-06 08:21:00,
2014-01-06 03:26:00,65.4,64.8,29.95,SSW,197,0.0,0.0,98,0.00,,---,0.00,VWS V14.01,2014-01-06 08:26:00,
2014-01-06 03:31:00,65.2,64.6,29.95,SSW,197,0.0,0.0,98,0.00,,---,0.00,VWS V14.01,2014-01-06 08:31:00,
2014-01-06 03:36:00,65.2,64.6,29.95,SSW,197,0.0,0.0,98,0.00,,---,0.00,VWS V14.01,2014-01-06 08:36:00,
2014-01-06 03:41:00,65.1,64.5,29.95,SSW,197,0.0,0.0,98,0.00,,---,0.00,VWS V14.01,2014-01-06 08:41:00,
2014-01-06 03:46:00,64.9,64.3,29.95,SSW,197,0.0,0.0,98,0.00,,---,0.00,VWS V14.01,2014-01-06 08:46:00,
2014-01-06 03:51:00,64.3,63.4,29.95,SSW,197,0.0,0.0,97,0.00,,---,0.00,VWS V14.01,2014-01-06 08:51:00,
2014-01-06 03:56:00,64.0,63.1,29.95,SSW,197,0.0,0.0,97,0.00,,---,0.00,VWS V14.01,2014-01-06 08:56:00,
2014-01-06 04:01:00,63.8,62.9,29.95,SSW,197,0.0,0.0,97,0.00,,---,0.00,VWS V14.01,2014-01-06 09:01:00,
2014-01-06 04:06:00,64.2,63.6,29.95,SSW,197,0.0,0.0,98,0.00,,---,0.00,VWS V14.01,2014-01-06 09:06:00,
2014-01-06 04:11:00,64.5,63.9,29.95,SSW,197,0.0,0.0,98,0.00,,---,0.00,VWS V14.01,2014-01-06 09:11:00,
2014-01-06 04:16:00,64.5,63.9,29.95,SSW,197,0.0,0.0,98,0.00,,---,0.00,VWS V14.01,2014-01-06 09:16:00,
2014-01-06 04:21:00,64.3,63.7,29.95,SSW,197,0.0,0.0,98,0.00,,---,0.00,VWS V14.01,2014-01-06 09:21:00,
2014-01-06 04:26:00,64.2,63.6,29.95,SSW,197,0.0,0.0,98,0.00,,---,0.00,VWS V14.01,2014-01-06 09:26:00,
2014-01-06 04:31:00,64.2,63.6,29.95,SSW,197,0.0,0.0,98,0.00,,---,0.00,VWS V14.01,2014-01-06 09:31:00,
2014-01-06 04:36:00,64.3,63.7,29.95,SSW,197,0.0,0.0,98,0.00,,---,0.00,VWS V14.01,2014-01-06 09:36:00,
2014-01-06 04:41:00,64.6,64.0,29.95,SSW,197,0.0,0.0,98,0.00,,---,0.00,VWS V14.01,2014-01-06 09:41:00,
2014-01-06 04:46:00,64.9,64.6,29.95,SSW,197,0.0,0.0,99,0.00,,---,0.00,VWS V14.01,2014-01-06 09:46:00,
2014-01-06 04:51:00,65.1,64.8,29.95,SSW,197,0.0,0.0,99,0.00,,---,0.00,VWS V14.01,2014-01-06 09:51:00,
2014-01-06 04:56:00,65.1,64.8,29.95,SSW,197,0.0,0.0,99,0.00,,---,0.00,VWS V14.01,2014-01-06 09:56:00,
2014-01-06 05:01:00,65.1,64.5,29.95,SSW,197,0.0,0.0,98,0.00,,---,0.00,VWS V14.01,2014-01-06 10:01:00,
2014-01-06 05:06:00,65.2,64.9,29.95,SSW,197,0.0,0.0,99,0.00,,---,0.00,VWS V14.01,2014-01-06 10:06:00,
2014-01-06 05:11:00,65.3,65.0,29.95,SSW,198,0.0,0.0,99,0.00,,---,0.00,VWS V14.01,2014-01-06 10:11:00,
2014-01-06 05:16:00,65.3,65.0,29.95,SSW,198,0.0,0.0,99,0.00,,---,0.00,VWS V14.01,2014-01-06 10:16:00,
2014-01-06 05:21:00,65.2,64.6,29.95,SSW,198,0.0,0.0,98,0.00,,---,0.00,VWS V14.01,2014-01-06 10:21:00,
2014-01-06 05:26:00,65.2,64.6,29.95,SSW,198,0.0,0.0,98,0.00,,---,0.00,VWS V14.01,2014-01-06 10:26:00,
2014-01-06 05:31:00,65.2,64.6,29.95,SSW,198,0.0,0.0,98,0.00,,---,0.00,VWS V14.01,2014-01-06 10:31:00,
2014-01-06 05:36:00,65.3,65.0,29.95,SSW,198,0.0,0.0,99,0.00,,---,0.00,VWS V14.01,2014-01-06 10:36:00,
2014-01-06 05:41:00,65.4,65.1,29.95,SSW,198,0.0,0.0,99,0.00,,---,0.00,VWS V14.01,2014-01-06 10:41:00,
2014-01-06 05:46:00,65.5,65.2,29.95,SSW,198,0.0,0.0,99,0.00,,---,0.00,VWS V14.01,2014-01-06 10:46:00,
2014-01-06 05:51:00,65.6,65.3,29.95,SSW,197,0.0,0.0,99,0.00,,---,0.00,VWS V14.01,2014-01-06 10:51:00,
2014-01-06 05:56:00,65.6,65.3,29.95,SSW,198,0.0,0.0,99,0.00,,---,0.00,VWS V14.01,2014-01-06 10:56:00,
2014-01-06 06:01:00,65.8,65.5,29.96,SSW,201,0.0,0.0,99,0.00,,---,0.00,VWS V14.01,2014-01-06 11:01:00,
2014-01-06 06:06:00,66.0,65.7,29.96,SSW,207,0.0,0.0,99,0.00,,---,0.00,VWS V14.01,2014-01-06 11:06:00,
2014-01-06 06:11:00,66.3,66.0,29.96,SSW,206,0.0,0.0,99,0.00,,---,0.00,VWS V14.01,2014-01-06 11:11:00,
2014-01-06 06:16:00,66.6,66.3,29.96,SE,134,0.0,0.0,99,0.00,,---,0.00,VWS V14.01,2014-01-06 11:16:00,
2014-01-06 06:21:00,66.9,66.6,29.96,South,188,0.0,0.0,99,0.00,,---,0.00,VWS V14.01,2014-01-06 11:21:00,
2014-01-06 06:26:00,67.1,66.8,29.96,SW,215,0.0,0.0,99,0.00,,---,0.00,VWS V14.01,2014-01-06 11:26:00,
2014-01-06 06:31:00,67.2,66.9,29.96,SW,221,0.0,0.0,99,0.00,,---,0.00,VWS V14.01,2014-01-06 11:31:00,
2014-01-06 06:36:00,67.2,66.9,29.96,SSW,212,0.0,1.0,99,0.00,,---,0.00,VWS V14.01,2014-01-06 11:36:00,
2014-01-06 06:41:00,67.2,66.9,29.96,WSW,245,0.0,0.0,99,0.00,,---,0.00,VWS V14.01,2014-01-06 11:41:00,
2014-01-06 06:46:00,67.1,66.8,29.96,SSW,194,0.0,0.0,99,0.00,,---,0.00,VWS V14.01,2014-01-06 11:46:00,
2014-01-06 06:51:00,67.0,66.7,29.96,WSW,258,0.0,0.0,99,0.00,,---,0.00,VWS V14.01,2014-01-06 11:51:00,
2014-01-06 06:56:00,66.9,66.6,29.96,WSW,238,1.0,1.0,99,0.00,,---,0.00,VWS V14.01,2014-01-06 11:56:00,
2014-01-06 07:01:00,66.9,66.6,29.97,South,176,0.0,1.0,99,0.00,,---,0.00,VWS V14.01,2014-01-06 12:01:00,
2014-01-06 07:06:00,66.9,66.6,29.97,South,176,0.0,0.0,99,0.00,,---,0.00,VWS V14.01,2014-01-06 12:06:00,
2014-01-06 07:11:00,67.0,66.7,29.97,WSW,238,0.0,0.0,99,0.00,,---,0.00,VWS V14.01,2014-01-06 12:11:00,
2014-01-06 07:16:00,67.0,66.7,29.97,West,259,0.0,0.0,99,0.00,,---,0.00,VWS V14.01,2014-01-06 12:16:00,
2014-01-06 07:21:00,67.0,66.7,29.98,West,259,0.0,1.0,99,0.00,,---,0.00,VWS V14.01,2014-01-06 12:21:00,
2014-01-06 07:26:00,67.0,66.7,29.98,SW,231,0.0,0.0,99,0.00,,---,0.00,VWS V14.01,2014-01-06 12:26:00,
2014-01-06 07:31:00,67.0,66.7,29.98,SW,218,0.0,0.0,99,0.00,,---,0.00,VWS V14.01,2014-01-06 12:31:00,
2014-01-06 07:36:00,67.0,66.7,29.98,WSW,254,0.0,0.0,99,0.00,,---,0.00,VWS V14.01,2014-01-06 12:36:00,
2014-01-06 07:41:00,67.1,66.8,29.99,SW,228,0.0,0.0,99,0.00,,---,0.00,VWS V14.01,2014-01-06 12:41:00,
2014-01-06 07:46:00,67.2,66.9,29.99,WSW,242,0.0,0.0,99,0.00,,---,0.00,VWS V14.01,2014-01-06 12:46:00,
2014-01-06 07:51:00,67.4,67.1,29.99,SW,224,0.0,0.0,99,0.00,,---,0.00,VWS V14.01,2014-01-06 12:51:00,
2014-01-06 07:56:00,67.5,67.2,29.99,WSW,243,0.0,0.0,99,0.00,,---,0.00,VWS V14.01,2014-01-06 12:56:00,
2014-01-06 08:01:00,67.7,67.4,29.99,SSW,213,0.0,0.0,99,0.00,,---,0.00,VWS V14.01,2014-01-06 13:01:00,
2014-01-06 08:06:00,67.8,67.5,29.99,WSW,246,0.0,0.0,99,0.00,,---,0.00,VWS V14.01,2014-01-06 13:06:00,
2014-01-06 08:11:00,67.9,67.6,29.99,South,184,0.0,0.0,99,0.00,,---,0.00,VWS V14.01,2014-01-06 13:11:00,
2014-01-06 08:16:00,68.0,67.7,29.99,WSW,257,0.0,1.0,99,0.00,,---,0.00,VWS V14.01,2014-01-06 13:16:00,
2014-01-06 08:21:00,68.1,67.8,30.00,SSW,203,0.0,1.0,99,0.00,,---,0.00,VWS V14.01,2014-01-06 13:21:00,
2014-01-06 08:26:00,68.2,67.9,30.00,SW,220,1.0,1.0,99,0.00,,---,0.00,VWS V14.01,2014-01-06 13:26:00,
2014-01-06 08:31:00,68.3,68.0,30.00,SW,233,0.0,0.0,99,0.00,,---,0.00,VWS V14.01,2014-01-06 13:31:00,
2014-01-06 08:36:00,68.4,68.1,30.00,SW,233,0.0,0.0,99,0.00,,---,0.00,VWS V14.01,2014-01-06 13:36:00,
2014-01-06 08:41:00,68.5,68.2,30.00,West,259,1.0,1.0,99,0.00,,---,0.00,VWS V14.01,2014-01-06 13:41:00,
2014-01-06 08:46:00,68.5,68.2,30.00,West,279,0.0,1.0,99,0.00,,---,0.00,VWS V14.01,2014-01-06 13:46:00,
2014-01-06 08:51:00,68.6,68.3,30.01,WSW,241,0.0,1.0,99,0.00,,---,0.00,VWS V14.01,2014-01-06 13:51:00,
2014-01-06 08:56:00,68.6,68.3,30.01,SW,229,1.0,1.0,99,0.00,,---,0.00,VWS V14.01,2014-01-06 13:56:00,
2014-01-06 09:01:00,68.6,68.3,30.01,SW,229,0.0,0.0,99,0.00,,---,0.00,VWS V14.01,2014-01-06 14:01:00,
2014-01-06 09:03:00,68.7,68.4,30.02,SW,214,0.0,0.0,99,0.00,,---,0.00,VWS V14.01,2014-01-06 14:03:00,
2014-01-06 09:08:00,68.8,68.5,30.02,WSW,237,0.0,1.0,99,0.00,,---,0.00,VWS V14.01,2014-01-06 14:08:00,
2014-01-06 09:13:00,69.0,68.7,30.02,SW,233,1.0,2.0,99,0.00,,---,0.00,VWS V14.01,2014-01-06 14:13:00,
2014-01-06 09:18:00,69.2,68.9,30.02,SW,221,1.0,2.0,99,0.00,,---,0.00,VWS V14.01,2014-01-06 14:18:00,
2014-01-06 09:23:00,69.3,69.0,30.02,SW,214,1.0,1.0,99,0.00,,---,0.00,VWS V14.01,2014-01-06 14:23:00,
2014-01-06 09:28:00,69.4,69.1,30.02,SW,233,2.0,2.0,99,0.00,,---,0.00,VWS V14.01,2014-01-06 14:28:00,
2014-01-06 09:33:00,69.5,69.2,30.03,SSW,211,0.0,1.0,99,0.00,,---,0.00,VWS V14.01,2014-01-06 14:33:00,
2014-01-06 09:38:00,69.7,69.4,30.03,SW,219,0.0,1.0,99,0.00,,---,0.00,VWS V14.01,2014-01-06 14:38:00,
2014-01-06 09:43:00,69.9,69.6,30.03,WSW,253,1.0,1.0,99,0.00,,---,0.00,VWS V14.01,2014-01-06 14:43:00,
2014-01-06 09:48:00,70.1,69.8,30.03,SW,227,1.0,3.0,99,0.00,,---,0.00,VWS V14.01,2014-01-06 14:48:00,
2014-01-06 09:53:00,70.1,69.5,30.04,SW,233,1.0,2.0,98,0.00,,---,0.00,VWS V14.01,2014-01-06 14:53:00,
2014-01-06 09:58:00,70.2,69.6,30.03,West,259,0.0,1.0,98,0.00,,---,0.00,VWS V14.01,2014-01-06 14:58:00,
2014-01-06 10:03:00,70.3,69.4,30.03,SW,233,2.0,2.0,97,0.00,,---,0.00,VWS V14.01,2014-01-06 15:03:00,
2014-01-06 10:08:00,70.6,70.0,30.03,SW,231,0.0,1.0,98,0.00,,---,0.00,VWS V14.01,2014-01-06 15:08:00,
2014-01-06 10:13:00,71.0,70.4,30.03,SW,226,0.0,0.0,98,0.00,,---,0.00,VWS V14.01,2014-01-06 15:13:00,
2014-01-06 10:18:00,71.3,70.1,30.03,SSW,204,0.0,0.0,96,0.00,,---,0.00,VWS V14.01,2014-01-06 15:18:00,
2014-01-06 10:23:00,71.7,70.2,30.03,SSW,204,1.0,2.0,95,0.00,,---,0.00,VWS V14.01,2014-01-06 15:23:00,
2014-01-06 10:28:00,72.2,70.7,30.03,SSW,195,1.0,2.0,95,0.00,,---,0.00,VWS V14.01,2014-01-06 15:28:00,
2014-01-06 10:33:00,72.6,70.5,30.03,SSW,192,1.0,1.0,93,0.00,,---,0.00,VWS V14.01,2014-01-06 15:33:00,
2014-01-06 10:38:00,73.1,70.6,30.03,SSW,207,1.0,1.0,92,0.00,,---,0.00,VWS V14.01,2014-01-06 15:38:00,
2014-01-06 10:43:00,73.3,70.8,30.02,WSW,243,1.0,1.0,92,0.00,,---,0.00,VWS V14.01,2014-01-06 15:43:00,
2014-01-06 10:48:00,73.8,70.4,30.02,SW,225,1.0,2.0,89,0.00,,---,0.00,VWS V14.01,2014-01-06 15:48:00,
2014-01-06 10:53:00,74.3,70.5,30.02,SW,229,1.0,1.0,88,0.00,,---,0.00,VWS V14.01,2014-01-06 15:53:00,
2014-01-06 10:58:00,74.8,68.6,30.02,SSW,194,2.0,4.0,81,0.00,,---,0.00,VWS V14.01,2014-01-06 15:58:00,
2014-01-06 11:03:00,75.4,68.1,30.02,WSW,251,4.0,4.0,78,0.01,,---,0.01,VWS V14.01,2014-01-06 16:03:00,
2014-01-06 11:08:00,76.0,67.5,30.02,WSW,238,3.0,4.0,75,0.01,,---,0.01,VWS V14.01,2014-01-06 16:08:00,
2014-01-06 11:13:00,76.4,67.9,30.02,SW,216,2.0,3.0,75,0.01,,---,0.01,VWS V14.01,2014-01-06 16:13:00,
2014-01-06 11:18:00,76.8,66.3,30.02,SW,231,1.0,3.0,70,0.01,,---,0.01,VWS V14.01,2014-01-06 16:18:00,
2014-01-06 11:23:00,77.0,67.3,30.02,SE,139,0.0,0.0,72,0.01,,---,0.01,VWS V14.01,2014-01-06 16:23:00,
2014-01-06 11:28:00,77.1,67.4,30.01,SSW,205,2.0,5.0,72,0.01,,---,0.01,VWS V14.01,2014-01-06 16:28:00,
2014-01-06 11:33:00,77.5,65.7,30.02,SW,232,3.0,3.0,67,0.01,,---,0.01,VWS V14.01,2014-01-06 16:33:00,
2014-01-06 11:38:00,77.8,66.0,30.01,SSW,202,2.0,2.0,67,0.01,,---,0.01,VWS V14.01,2014-01-06 16:38:00,
2014-01-06 11:43:00,78.2,66.4,30.01,SW,219,2.0,2.0,67,0.01,,---,0.01,VWS V14.01,2014-01-06 16:43:00,
2014-01-06 11:48:00,78.6,65.9,30.01,SW,221,2.0,2.0,65,0.01,,---,0.01,VWS V14.01,2014-01-06 16:48:00,
2014-01-06 11:53:00,78.6,65.0,30.01,SW,225,3.0,4.0,63,0.01,,---,0.01,VWS V14.01,2014-01-06 16:53:00,
2014-01-06 11:58:00,78.9,65.7,30.00,WSW,249,2.0,3.0,64,0.01,,---,0.01,VWS V14.01,2014-01-06 16:58:00,
2014-01-06 12:03:00,78.9,64.3,30.00,SW,236,5.0,5.0,61,0.00,,---,0.01,VWS V14.01,2014-01-06 17:03:00,
2014-01-06 12:08:00,78.7,65.1,30.00,West,280,2.0,3.0,63,0.00,,---,0.01,VWS V14.01,2014-01-06 17:08:00,
2014-01-06 12:13:00,78.6,64.0,30.00,West,259,4.0,5.0,61,0.00,,---,0.01,VWS V14.01,2014-01-06 17:13:00,
2014-01-06 12:18:00,78.6,64.0,29.99,SW,233,7.0,7.0,61,0.00,,---,0.01,VWS V14.01,2014-01-06 17:18:00,
2014-01-06 12:23:00,78.7,64.6,29.99,WSW,257,4.0,4.0,62,0.00,,---,0.01,VWS V14.01,2014-01-06 17:23:00,
2014-01-06 12:28:00,78.5,63.5,29.99,West,269,7.0,9.0,60,0.00,,---,0.01,VWS V14.01,2014-01-06 17:28:00,
2014-01-06 12:33:00,78.3,63.8,29.98,WSW,255,5.0,7.0,61,0.00,,---,0.01,VWS V14.01,2014-01-06 17:33:00,
2014-01-06 12:38:00,78.1,63.6,29.98,WNW,300,3.0,5.0,61,0.00,,---,0.01,VWS V14.01,2014-01-06 17:38:00,
2014-01-06 12:42:00,77.9,63.8,29.98,SW,234,4.0,5.0,62,0.00,,---,0.01,VWS V14.01,2014-01-06 17:42:00,
2014-01-06 12:47:00,77.4,64.7,29.98,WSW,257,4.0,5.0,65,0.00,,---,0.01,VWS V14.01,2014-01-06 17:47:00,
2014-01-06 12:52:00,76.5,65.6,29.98,West,280,2.0,6.0,69,0.00,,---,0.01,VWS V14.01,2014-01-06 17:52:00,
2014-01-06 12:57:00,76.1,66.0,29.98,WNW,282,3.0,3.0,71,0.00,,---,0.01,VWS V14.01,2014-01-06 17:57:00,
2014-01-06 13:02:00,75.6,65.9,29.99,West,277,5.0,6.0,72,0.00,,---,0.01,VWS V14.01,2014-01-06 18:02:00,
2014-01-06 13:07:00,74.2,65.0,29.99,NNE,20,4.0,4.0,73,0.00,,---,0.01,VWS V14.01,2014-01-06 18:07:00,
2014-01-06 13:12:00,73.8,65.4,29.99,WNW,284,1.0,1.0,75,0.00,,---,0.01,VWS V14.01,2014-01-06 18:12:00,
2014-01-06 13:17:00,73.7,65.3,29.99,West,262,2.0,3.0,75,0.00,,---,0.01,VWS V14.01,2014-01-06 18:17:00,
2014-01-06 13:22:00,73.0,64.6,29.99,NW,309,2.0,2.0,75,0.00,,---,0.01,VWS V14.01,2014-01-06 18:22:00,
2014-01-06 13:27:00,72.6,64.6,30.00,WSW,256,0.0,1.0,76,0.00,,---,0.01,VWS V14.01,2014-01-06 18:27:00,
2014-01-06 13:32:00,71.2,63.3,30.00,North,5,1.0,4.0,76,0.00,,---,0.01,VWS V14.01,2014-01-06 18:32:00,
2014-01-06 13:37:00,70.1,62.9,30.00,SW,221,1.0,1.0,78,0.00,,---,0.01,VWS V14.01,2014-01-06 18:37:00,
2014-01-06 13:42:00,69.6,62.8,30.00,NNW,330,4.0,4.0,79,0.00,,---,0.01,VWS V14.01,2014-01-06 18:42:00,
2014-01-06 13:47:00,69.0,62.2,30.00,WNW,300,1.0,2.0,79,0.00,,---,0.01,VWS V14.01,2014-01-06 18:47:00,
2014-01-06 13:52:00,68.6,61.5,30.00,SW,236,3.0,4.0,78,0.00,,---,0.01,VWS V14.01,2014-01-06 18:52:00,
2014-01-06 13:57:00,68.0,61.2,30.00,WSW,257,1.0,4.0,79,0.00,,---,0.01,VWS V14.01,2014-01-06 18:57:00,
2014-01-06 14:02:00,67.6,61.6,30.00,WNW,293,1.0,3.0,81,0.00,,---,0.01,VWS V14.01,2014-01-06 19:02:00,
2014-01-06 14:07:00,67.4,61.4,30.01,West,260,1.0,3.0,81,0.00,,---,0.01,VWS V14.01,2014-01-06 19:07:00,
2014-01-06 14:12:00,66.9,60.9,30.01,NW,314,4.0,4.0,81,0.00,,---,0.01,VWS V14.01,2014-01-06 19:12:00,
2014-01-06 14:17:00,66.2,60.9,30.02,SW,226,2.0,3.0,83,0.00,,---,0.01,VWS V14.01,2014-01-06 19:17:00,
2014-01-06 14:22:00,65.7,60.7,30.01,NW,320,0.0,2.0,84,0.00,,---,0.01,VWS V14.01,2014-01-06 19:22:00,
2014-01-06 14:27:00,65.5,60.5,30.01,NW,310,1.0,5.0,84,0.00,,---,0.01,VWS V14.01,2014-01-06 19:27:00,
2014-01-06 14:32:00,65.4,60.5,30.02,West,261,2.0,3.0,84,0.00,,---,0.01,VWS V14.01,2014-01-06 19:32:00,
2014-01-06 14:37:00,65.2,60.2,30.02,West,271,3.0,6.0,84,0.00,,---,0.01,VWS V14.01,2014-01-06 19:37:00,
2014-01-06 14:42:00,65.0,60.0,30.02,WSW,257,0.0,3.0,84,0.00,,---,0.01,VWS V14.01,2014-01-06 19:42:00,
2014-01-06 14:47:00,64.9,59.6,30.02,NNE,20,1.0,4.0,83,0.00,,---,0.01,VWS V14.01,2014-01-06 19:47:00,
2014-01-06 14:52:00,64.4,58.5,30.02,SW,232,1.0,4.0,81,0.00,,---,0.01,VWS V14.01,2014-01-06 19:52:00,
2014-01-06 14:57:00,64.1,57.8,30.03,WNW,297,2.0,5.0,80,0.00,,---,0.01,VWS V14.01,2014-01-06 19:57:00,
2014-01-06 15:02:00,64.0,57.4,30.02,North,2,3.0,4.0,79,0.00,,---,0.01,VWS V14.01,2014-01-06 20:02:00,
2014-01-06 15:07:00,64.1,57.5,30.03,WNW,285,0.0,4.0,79,0.00,,---,0.01,VWS V14.01,2014-01-06 20:07:00,
2014-01-06 15:12:00,63.9,57.3,30.03,SW,236,1.0,2.0,79,0.00,,---,0.01,VWS V14.01,2014-01-06 20:12:00,
2014-01-06 15:17:00,63.9,56.9,30.04,West,269,3.0,4.0,78,0.00,,---,0.01,VWS V14.01,2014-01-06 20:17:00,
2014-01-06 15:22:00,63.8,56.8,30.04,West,279,3.0,4.0,78,0.00,,---,0.01,VWS V14.01,2014-01-06 20:22:00,
2014-01-06 15:27:00,63.8,57.2,30.04,North,352,3.0,4.0,79,0.00,,---,0.01,VWS V14.01,2014-01-06 20:27:00,
2014-01-06 15:32:00,63.6,56.6,30.04,WNW,283,3.0,3.0,78,0.00,,---,0.01,VWS V14.01,2014-01-06 20:32:00,
2014-01-06 15:37:00,63.4,56.4,30.04,WNW,300,1.0,6.0,78,0.00,,---,0.01,VWS V14.01,2014-01-06 20:37:00,
2014-01-06 15:42:00,62.9,55.9,30.04,West,266,3.0,3.0,78,0.00,,---,0.01,VWS V14.01,2014-01-06 20:42:00,
2014-01-06 15:47:00,62.7,56.1,30.04,NW,311,3.0,4.0,79,0.00,,---,0.01,VWS V14.01,2014-01-06 20:47:00,
2014-01-06 15:52:00,62.4,55.5,30.04,West,266,3.0,3.0,78,0.00,,---,0.01,VWS V14.01,2014-01-06 20:52:00,
2014-01-06 15:57:00,62.1,55.2,30.05,West,262,2.0,3.0,78,0.00,,---,0.01,VWS V14.01,2014-01-06 20:57:00,
2014-01-06 16:02:00,61.5,53.9,30.05,NW,323,1.0,3.0,76,0.00,,---,0.01,VWS V14.01,2014-01-06 21:02:00,
2014-01-06 16:07:00,61.2,53.2,30.05,NNW,330,3.0,4.0,75,0.00,,---,0.01,VWS V14.01,2014-01-06 21:07:00,
2014-01-06 16:12:00,60.8,52.5,30.06,North,353,2.0,3.0,74,0.00,,---,0.01,VWS V14.01,2014-01-06 21:12:00,
2014-01-06 16:17:00,60.4,51.7,30.06,NW,320,3.0,4.0,73,0.00,,---,0.01,VWS V14.01,2014-01-06 21:17:00,
2014-01-06 16:22:00,60.1,51.8,30.07,WNW,303,3.0,3.0,74,0.00,,---,0.01,VWS V14.01,2014-01-06 21:22:00,
2014-01-06 16:27:00,59.9,51.2,30.07,WNW,295,3.0,4.0,73,0.00,,---,0.01,VWS V14.01,2014-01-06 21:27:00,
2014-01-06 16:32:00,59.6,50.6,30.07,West,259,1.0,1.0,72,0.00,,---,0.01,VWS V14.01,2014-01-06 21:32:00,
2014-01-06 16:37:00,59.4,50.4,30.07,NNE,26,4.0,5.0,72,0.00,,---,0.01,VWS V14.01,2014-01-06 21:37:00,
2014-01-06 16:42:00,59.1,50.1,30.08,West,276,1.0,3.0,72,0.00,,---,0.01,VWS V14.01,2014-01-06 21:42:00,
2014-01-06 16:47:00,59.1,50.5,30.08,WSW,245,1.0,5.0,73,0.00,,---,0.01,VWS V14.01,2014-01-06 21:47:00,
2014-01-06 16:52:00,58.9,49.2,30.08,WSW,248,1.0,2.0,70,0.00,,---,0.01,VWS V14.01,2014-01-06 21:52:00,
2014-01-06 16:57:00,58.6,47.3,30.09,West,278,2.0,6.0,66,0.00,,---,0.01,VWS V14.01,2014-01-06 21:57:00,
2014-01-06 17:02:00,58.3,47.0,30.09,NW,325,1.0,4.0,66,0.00,,---,0.01,VWS V14.01,2014-01-06 22:02:00,
2014-01-06 17:07:00,58.1,47.6,30.10,NNW,336,1.0,3.0,68,0.00,,---,0.01,VWS V14.01,2014-01-06 22:07:00,
2014-01-06 17:12:00,57.9,47.8,30.09,NNW,338,2.0,2.0,69,0.00,,---,0.01,VWS V14.01,2014-01-06 22:12:00,
2014-01-06 17:17:00,57.6,46.7,30.10,NW,313,2.0,2.0,67,0.00,,---,0.01,VWS V14.01,2014-01-06 22:17:00,
2014-01-06 17:22:00,57.4,46.5,30.11,NW,316,0.0,3.0,67,0.00,,---,0.01,VWS V14.01,2014-01-06 22:22:00,
2014-01-06 17:27:00,57.1,45.5,30.11,SW,224,0.0,3.0,65,0.00,,---,0.01,VWS V14.01,2014-01-06 22:27:00,
2014-01-06 17:32:00,56.7,42.5,30.11,NW,310,4.0,5.0,59,0.00,,---,0.01,VWS V14.01,2014-01-06 22:32:00,
2014-01-06 17:37:00,56.1,42.8,30.12,NW,326,1.0,2.0,61,0.00,,---,0.01,VWS V14.01,2014-01-06 22:37:00,
2014-01-06 17:42:00,55.6,42.4,30.12,West,281,4.0,4.0,61,0.00,,---,0.01,VWS V14.01,2014-01-06 22:42:00,
2014-01-06 17:47:00,55.2,42.4,30.12,NW,306,1.0,3.0,62,0.00,,---,0.01,VWS V14.01,2014-01-06 22:47:00,
2014-01-06 17:52:00,54.9,41.7,30.13,NW,321,4.0,4.0,61,0.00,,---,0.01,VWS V14.01,2014-01-06 22:52:00,
2014-01-06 17:57:00,54.4,40.8,30.13,West,264,2.0,4.0,60,0.00,,---,0.01,VWS V14.01,2014-01-06 22:57:00,
2014-01-06 18:02:00,54.1,41.4,30.13,North,355,1.0,3.0,62,0.00,,---,0.01,VWS V14.01,2014-01-06 23:02:00,
2014-01-06 18:07:00,53.7,40.2,30.14,WNW,299,1.0,7.0,60,0.00,,---,0.01,VWS V14.01,2014-01-06 23:07:00,
2014-01-06 18:12:00,53.4,38.6,30.13,NW,305,2.0,3.0,57,0.00,,---,0.01,VWS V14.01,2014-01-06 23:12:00,
2014-01-06 18:17:00,53.2,38.8,30.14,NNW,335,2.0,4.0,58,0.00,,---,0.01,VWS V14.01,2014-01-06 23:17:00,
2014-01-06 18:22:00,53.1,38.3,30.14,SW,218,1.0,5.0,57,0.00,,---,0.01,VWS V14.01,2014-01-06 23:22:00,
2014-01-06 18:27:00,52.9,37.7,30.14,NNE,32,8.0,8.0,56,0.00,,---,0.01,VWS V14.01,2014-01-06 23:27:00,
2014-01-06 18:32:00,52.6,37.4,30.15,West,278,2.0,5.0,56,0.00,,---,0.01,VWS V14.01,2014-01-06 23:32:00,
2014-01-06 18:37:00,52.5,38.2,30.15,North,349,2.0,4.0,58,0.00,,---,0.01,VWS V14.01,2014-01-06 23:37:00,
2014-01-06 18:42:00,52.4,38.5,30.15,WNW,283,2.0,3.0,59,0.00,,---,0.01,VWS V14.01,2014-01-06 23:42:00,
2014-01-06 18:47:00,52.3,38.8,30.15,West,269,0.0,3.0,60,0.00,,---,0.01,VWS V14.01,2014-01-06 23:47:00,
2014-01-06 18:52:00,52.1,38.7,30.15,WNW,298,0.0,1.0,60,0.00,,---,0.01,VWS V14.01,2014-01-06 23:52:00,
2014-01-06 18:57:00,52.0,38.1,30.16,NW,326,0.0,3.0,59,0.00,,---,0.01,VWS V14.01,2014-01-06 23:57:00,
2014-01-06 19:02:00,52.0,37.7,30.16,NW,313,2.0,5.0,58,0.00,,---,0.01,VWS V14.01,2014-01-07 00:02:00,
2014-01-06 19:07:00,51.9,38.0,30.17,WSW,245,2.0,4.0,59,0.00,,---,0.01,VWS V14.01,2014-01-07 00:07:00,
2014-01-06 19:12:00,51.8,38.4,30.17,NNW,328,2.0,2.0,60,0.00,,---,0.01,VWS V14.01,2014-01-07 00:12:00,
2014-01-06 19:17:00,51.7,38.7,30.17,WNW,283,1.0,4.0,61,0.00,,---,0.01,VWS V14.01,2014-01-07 00:17:00,
2014-01-06 19:22:00,51.6,38.2,30.18,WNW,302,0.0,6.0,60,0.00,,---,0.01,VWS V14.01,2014-01-07 00:22:00,
2014-01-06 19:27:00,51.6,38.6,30.19,West,264,1.0,3.0,61,0.00,,---,0.01,VWS V14.01,2014-01-07 00:27:00,
2014-01-06 19:32:00,51.6,38.6,30.18,NW,308,1.0,4.0,61,0.00,,---,0.01,VWS V14.01,2014-01-07 00:32:00,
2014-01-06 19:37:00,51.4,38.4,30.19,WSW,238,3.0,4.0,61,0.00,,---,0.01,VWS V14.01,2014-01-07 00:37:00,
2014-01-06 19:42:00,51.3,38.3,30.19,WNW,296,1.0,3.0,61,0.00,,---,0.01,VWS V14.01,2014-01-07 00:42:00,
2014-01-06 19:47:00,51.2,38.2,30.19,NW,318,1.0,3.0,61,0.00,,---,0.01,VWS V14.01,2014-01-07 00:47:00,
2014-01-06 19:52:00,51.2,38.2,30.19,North,356,2.0,2.0,61,0.00,,---,0.01,VWS V14.01,2014-01-07 00:52:00,
2014-01-06 19:57:00,51.1,37.7,30.19,NW,324,2.0,3.0,60,0.00,,---,0.01,VWS V14.01,2014-01-07 00:57:00,
2014-01-06 20:02:00,51.1,37.7,30.20,WNW,300,2.0,2.0,60,0.00,,---,0.01,VWS V14.01,2014-01-07 01:02:00,
2014-01-06 20:07:00,51.0,38.0,30.20,WSW,252,4.0,5.0,61,0.00,,---,0.01,VWS V14.01,2014-01-07 01:07:00,
2014-01-06 20:12:00,50.9,38.4,30.20,NNE,13,0.0,0.0,62,0.00,,---,0.01,VWS V14.01,2014-01-07 01:12:00,
2014-01-06 20:17:00,50.7,38.6,30.20,WNW,283,2.0,3.0,63,0.00,,---,0.01,VWS V14.01,2014-01-07 01:17:00,
2014-01-06 20:22:00,50.6,38.9,30.21,NW,310,1.0,5.0,64,0.00,,---,0.01,VWS V14.01,2014-01-07 01:22:00,
2014-01-06 20:27:00,50.4,39.1,30.21,WNW,285,2.0,2.0,65,0.00,,---,0.01,VWS V14.01,2014-01-07 01:27:00,
2014-01-06 20:32:00,50.3,39.4,30.21,NW,319,1.0,1.0,66,0.00,,---,0.01,VWS V14.01,2014-01-07 01:32:00,
2014-01-06 20:37:00,50.2,38.9,30.21,NW,306,1.0,2.0,65,0.00,,---,0.01,VWS V14.01,2014-01-07 01:37:00,
2014-01-06 20:42:00,50.1,38.8,30.22,WNW,285,2.0,2.0,65,0.00,,---,0.01,VWS V14.01,2014-01-07 01:42:00,
2014-01-06 20:47:00,50.1,38.8,30.22,NW,309,0.0,0.0,65,0.00,,---,0.01,VWS V14.01,2014-01-07 01:47:00,
2014-01-06 20:52:00,50.1,39.2,30.23,NE,41,0.0,0.0,66,0.00,,---,0.01,VWS V14.01,2014-01-07 01:52:00,
2014-01-06 20:57:00,50.0,38.7,30.23,NNW,339,0.0,0.0,65,0.00,,---,0.01,VWS V14.01,2014-01-07 01:57:00,
2014-01-06 21:02:00,50.0,38.7,30.23,NNE,26,0.0,0.0,65,0.00,,---,0.01,VWS V14.01,2014-01-07 02:02:00,
2014-01-06 21:07:00,50.0,38.3,30.23,WNW,283,3.0,3.0,64,0.00,,---,0.01,VWS V14.01,2014-01-07 02:07:00,
2014-01-06 21:12:00,49.9,36.2,30.23,NE,54,2.0,2.0,59,0.00,,---,0.01,VWS V14.01,2014-01-07 02:12:00,
2014-01-06 21:17:00,49.9,34.4,30.24,North,352,4.0,4.0,55,0.00,,---,0.01,VWS V14.01,2014-01-07 02:17:00,
2014-01-06 21:22:00,49.8,33.4,30.24,NNE,30,2.0,3.0,53,0.00,,---,0.01,VWS V14.01,2014-01-07 02:22:00,
2014-01-06 21:27:00,49.7,33.3,30.25,WNW,303,0.0,1.0,53,0.00,,---,0.01,VWS V14.01,2014-01-07 02:27:00,
2014-01-06 21:32:00,49.7,33.8,30.25,NW,309,2.0,3.0,54,0.00,,---,0.01,VWS V14.01,2014-01-07 02:32:00,
2014-01-06 21:37:00,49.6,34.1,30.25,ESE,106,0.0,0.0,55,0.00,,---,0.01,VWS V14.01,2014-01-07 02:37:00,
2014-01-06 21:42:00,49.4,34.4,30.25,South,191,0.0,0.0,56,0.00,,---,0.01,VWS V14.01,2014-01-07 02:42:00,
2014-01-06 21:47:00,49.3,34.7,30.25,WNW,302,0.0,0.0,57,0.00,,---,0.01,VWS V14.01,2014-01-07 02:47:00,
2014-01-06 21:52:00,49.3,34.7,30.26,North,8,3.0,4.0,57,0.00,,---,0.01,VWS V14.01,2014-01-07 02:52:00,
2014-01-06 21:57:00,49.2,35.1,30.26,NW,307,3.0,3.0,58,0.00,,---,0.01,VWS V14.01,2014-01-07 02:57:00,
2014-01-06 22:02:00,49.1,35.0,30.26,North,352,1.0,1.0,58,0.00,,---,0.01,VWS V14.01,2014-01-07 03:02:00,
2014-01-06 22:07:00,49.1,35.4,30.26,ENE,58,0.0,1.0,59,0.00,,---,0.01,VWS V14.01,2014-01-07 03:07:00,
2014-01-06 22:12:00,49.0,35.3,30.25,NNE,28,1.0,1.0,59,0.00,,---,0.01,VWS V14.01,2014-01-07 03:12:00,
2014-01-06 22:17:00,48.9,35.2,30.26,North,351,1.0,2.0,59,0.00,,---,0.01,VWS V14.01,2014-01-07 03:17:00,
2014-01-06 22:22:00,48.9,35.2,30.25,NNE,16,2.0,2.0,59,0.00,,---,0.01,VWS V14.01,2014-01-07 03:22:00,
2014-01-06 22:27:00,48.9,35.2,30.25,NNW,330,1.0,2.0,59,0.00,,---,0.01,VWS V14.01,2014-01-07 03:27:00,
2014-01-06 22:32:00,48.9,35.2,30.26,ESE,121,1.0,3.0,59,0.00,,---,0.01,VWS V14.01,2014-01-07 03:32:00,
2014-01-06 22:37:00,48.9,35.2,30.26,NNW,342,1.0,2.0,59,0.00,,---,0.01,VWS V14.01,2014-01-07 03:37:00,
2014-01-06 22:42:00,48.8,35.1,30.26,NW,308,0.0,1.0,59,0.00,,---,0.01,VWS V14.01,2014-01-07 03:42:00,
2014-01-06 22:47:00,48.8,35.5,30.26,NNW,345,3.0,3.0,60,0.00,,---,0.01,VWS V14.01,2014-01-07 03:47:00,
2014-01-06 22:52:00,48.8,36.0,30.26,North,359,0.0,1.0,61,0.00,,---,0.01,VWS V14.01,2014-01-07 03:52:00,
2014-01-06 22:57:00,48.8,36.0,30.26,NW,314,2.0,2.0,61,0.00,,---,0.01,VWS V14.01,2014-01-07 03:57:00,
2014-01-06 23:02:00,48.7,34.6,30.26,NW,311,2.0,3.0,58,0.00,,---,0.01,VWS V14.01,2014-01-07 04:02:00,
2014-01-06 23:07:00,48.6,34.1,30.25,NW,304,0.0,1.0,57,0.00,,---,0.01,VWS V14.01,2014-01-07 04:07:00,
2014-01-06 23:12:00,48.6,33.2,30.26,North,11,1.0,1.0,55,0.00,,---,0.01,VWS V14.01,2014-01-07 04:12:00,
2014-01-06 23:17:00,48.5,32.6,30.25,NW,323,1.0,1.0,54,0.00,,---,0.01,VWS V14.01,2014-01-07 04:17:00,
2014-01-06 23:22:00,48.4,32.1,30.25,NNW,341,1.0,2.0,53,0.00,,---,0.01,VWS V14.01,2014-01-07 04:22:00,
2014-01-06 23:26:00,48.3,31.5,30.25,NE,34,0.0,0.0,52,0.00,,---,0.01,VWS V14.01,2014-01-07 04:26:00,
2014-01-06 23:31:00,48.3,31.5,30.25,NE,50,0.0,1.0,52,0.00,,---,0.01,VWS V14.01,2014-01-07 04:31:00,
2014-01-06 23:36:00,48.3,31.0,30.26,West,263,4.0,4.0,51,0.00,,---,0.01,VWS V14.01,2014-01-07 04:36:00,
2014-01-06 23:41:00,48.3,31.0,30.26,NNE,30,1.0,1.0,51,0.00,,---,0.01,VWS V14.01,2014-01-07 04:41:00,
2014-01-06 23:46:00,48.3,31.0,30.26,West,267,1.0,2.0,51,0.00,,---,0.01,VWS V14.01,2014-01-07 04:46:00,
2014-01-06 23:51:00,48.3,31.5,30.25,North,6,1.0,1.0,52,0.00,,---,0.01,VWS V14.01,2014-01-07 04:51:00,
2014-01-06 23:56:00,48.2,31.9,30.25,NW,307,0.0,2.0,53,0.00,,---,0.01,VWS V14.01,2014-01-07 04:56:00,